Regional Weather Roundup
Issued by NWS

Home | Current Version | Previous Version | Text Only | Print | Product List | Glossary Off
Versions: 1 2 3 4 5 6 7 8 9 10 11 12 13 14 15 16 17 18 19 20 21 22 23 24 25 26 27 28 29 30 31 32 33 34 35 36 37 38 39 40 41 42 43 44 45 46 47 48 49 50

000
ASUS45 KABQ 280710
RWRNM
NEW MEXICO REGIONAL WEATHER ROUNDUP
NATIONAL WEATHER SERVICE ALBUQUERQUE NM
100 AM MDT TUE JUL 28 2015

NOTE: "FAIR" MEANS FEW OR NO CLOUDS BELOW 12,000 FEET AGL WITH NO
       SIGNIFICANT WEATHER OR OBSTRUCTIONS TO VISION.

      THIS PRODUCT IS RELEASED AS TWO VERSIONS.  ONE VERSION NEAR
      THE TOP OF THE HOUR CONTAINING PRELIMINARY DATA FROM ALBUQUERQUE
      AND OTHER STATIONS.  A FINAL VERSION WITH ADDITIONAL DATA IS
      ISSUED ABOUT 10 MINUTES AFTER THE HOUR.

NMZ501-503-504-510>518-280800-
NORTHWEST PLATEAU/NORTHCENTRAL MOUNTAINS

CITY           SKY/WX    TMP DP  RH WIND       PRES   REMARKS
FARMINGTON     CLEAR     64  28  25 N8        30.06S
LOS ALAMOS     PTCLDY    72  44  36 SW9       30.23S
SANTA FE       PTCLDY    69  49  48 E5        30.16S
TAOS           PTCLDY    57  41  54 CALM      30.21S
ANGEL FIRE     FAIR      49  45  84 CALM      30.33S

$$
NMZ402-403-502-505>509-280800-
WESTCENTRAL MOUNTAINS/SOUTHWEST MOUNTAINS

CITY           SKY/WX    TMP DP  RH WIND       PRES   REMARKS
GALLUP         PTCLDY    64  37  36 CALM      30.19S
GRANTS         CLOUDY    70  46  41 CALM      30.21R
SILVER CITY      N/A     72  46  40 NW9       30.13S

$$
NMZ407-409-411-412-280800-
SOUTHERN DESERTS

CITY           SKY/WX    TMP DP  RH WIND       PRES   REMARKS
LORDSBURG      FAIR      79  57  47 SW9       30.04S
DEMING         MOCLDY    79  52  38 SW5       30.04R
LAS CRUCES     CLOUDY    77  58  52 S9        30.05S
HOLLOMAN AFB   MOCLDY    82  53  36 E6        29.99S
ALAMOGORDO     PTCLDY    77  54  44 E5        30.01F
T OR C         MOCLDY    80  55  42 CALM      30.05R

$$
NMZ519>523-280800-
CENTRAL VALLEYS/CENTRAL HIGHLANDS

CITY           SKY/WX    TMP DP  RH WIND       PRES   REMARKS
ALBUQUERQUE    PTCLDY    76  50  40 SE7       30.09R
DOUBLE EAGLE   MOCLDY    74  50  42 SW8       30.12S
MORIARTY ARPT    N/A     65  54  66 S3        30.17
CLINES CORNERS MOCLDY    70  48  45 S12       30.22
BELEN          FAIR      77  49  36 SW9       30.07S
SOCORRO        FAIR      74  52  45 CALM      30.05S

$$
NMZ524>526-539-540-280800-
SOUTHCENTRAL MOUNTAINS

CITY           SKY/WX    TMP DP  RH WIND       PRES   REMARKS
RUIDOSO          N/A    N/A N/A N/A MISG        N/A

$$
NMZ527>531-280800-
NORTHEAST HIGHLANDS/NORTHEAST PLAINS

CITY           SKY/WX    TMP DP  RH WIND       PRES   REMARKS
LAS VEGAS      MOCLDY    66  51  58 S15       30.21R
RATON          PTCLDY    60  52  74 N5        30.12R
CLAYTON        PTCLDY    68  60  75 S9        30.04R

$$
NMZ532>537-280800-
EASTCENTRAL PLAINS

CITY           SKY/WX    TMP DP  RH WIND       PRES   REMARKS
TUCUMCARI      CLOUDY    84  52  33 SW22      29.96F
CANNON AFB     MOCLDY    76  56  49 W9        30.05F
CLOVIS AIRPORT PTCLDY    72  57  60 CALM      30.06F

$$
NMZ028-029-538-280800-
SOUTHEAST PLAINS

CITY           SKY/WX    TMP DP  RH WIND       PRES   REMARKS
ROSWELL        MOCLDY    83  57  41 NE8       29.99R
ARTESIA        PTCLDY    81  59  47 S8G15     29.98R
CARLSBAD       PTCLDY    83  60  45 S8        29.96R
HOBBS          CLEAR     81  55  41 S10       30.01S


$$



USA.gov is the U.S. government's official web portal to all federal, state and local government web resources and services.